[[{"header":{"parameterUnit":"m.s-1","parameterCategory":1,"la1":30.2991,"la2":30.254,"lo1":-89.0895,"lo2":-89.0444,"dy":0.0017,"dx":0.0017,"nx":28,"ny":28,"refTime":"2023-07-19T21:00:00:Z","depth":0,"parameterNumber":2,"parameterNumberName":"U-component_of_WINDS"},"data":[0,0,0,0,0,0,0,0,0,0,0,0,0,0,0,0,0,0,0,0,0,0,0,0,0,0,0,0,0,0,0,0,0,0,0,0,0,0,0,0,0,0,0,0,0,0,0,0,0,0,0,0,0,0,0,0,0,0,2.9374,2.9376,0,2.9489,2.9491,2.9492,2.9511,2.951,2.9509,2.9508,2.9629,2.9633,2.9637,0,0,0,0,0,0,0,0,0,0,0,0,0,2.9174,2.9178,2.9374,2.9376,2.9377,2.9489,2.9491,2.9492,2.9511,2.951,2.9509,2.9507,2.9628,2.9632,2.9637,0,0,0,0,0,0,0,0,0,0,0,0,0,2.9272,2.9179,2.9374,2.94,2.9403,2.9489,2.9491,2.9493,2.9511,2.951,2.9508,2.9507,2.9626,2.9632,2.9638,2.9707,0,0,2.9657,2.966,0,0,0,0,0,0,0,0,2.9267,2.928,2.9395,2.9398,2.9402,2.9484,2.9465,2.9565,2.9512,2.947,2.9508,2.9506,2.9582,2.9592,2.9617,2.9712,2.9718,2.9658,2.9662,2.9664,2.9666,0,0,0,0,0,0,0,2.926,2.9275,2.942,2.9396,2.9401,2.9407,2.9419,2.9484,2.9534,2.9474,2.9476,2.9489,2.9584,2.9611,2.962,2.9719,2.9658,2.9663,2.9667,2.9669,2.9879,2.988,0,0,0,0,0,0,2.9248,2.9269,2.9416,2.9423,2.9329,2.9412,2.9425,2.9459,2.9533,2.9542,2.949,2.9489,2.9601,2.9613,2.9624,2.971,2.9664,2.967,2.9674,2.9877,2.9879,2.9881,0,0,0,0,0,0,2.9244,2.9261,2.9412,2.9347,2.9366,2.9417,2.9455,2.9463,2.9489,2.9545,2.9554,2.9508,2.96,2.9615,2.9686,2.9715,2.9673,2.9679,2.9875,2.9877,2.988,2.9883,0,0,0,0,0,0,2.9238,2.9259,2.9285,2.9347,2.937,2.9471,2.9457,2.9466,2.95,2.95,2.9564,2.9574,2.96,2.9677,2.9692,2.9723,2.9683,2.9872,2.9876,2.9879,2.988,2.9885,2.9889,0,0,0,0,0,2.9231,2.9282,2.9286,2.9304,2.9403,2.9472,2.9485,2.9514,2.9502,2.9529,2.9565,2.9572,2.9709,2.9684,2.9702,2.9734,2.9871,2.9875,2.9879,2.9878,2.9884,2.9889,0,0,0,0,0,0,2.9223,2.929,2.9296,2.9369,2.9414,2.9475,2.951,2.9519,2.957,2.9568,2.9603,2.9617,2.9687,2.9717,2.9688,2.9805,2.9789,2.9797,2.9783,2.9789,2.9793,2.9785,2.9689,0,0,0,0,0,2.9229,2.9279,2.9336,2.9394,2.9417,2.9459,2.9491,2.9509,2.9558,2.9578,2.9619,2.9667,2.9722,2.9757,2.981,2.9884,2.99,2.9916,2.992,2.9924,2.993,2.9974,2.9982,2.9894,2.9894,2.9894,0,0,2.9244,2.9287,2.9316,2.9394,2.9431,2.9483,2.9476,2.9531,2.957,2.9587,2.9656,2.9688,2.9744,2.9817,2.9852,2.9845,2.9958,2.9929,2.9931,2.9936,2.9979,2.9987,2.9994,2.9897,2.9897,2.9896,0,0,2.9297,2.9333,2.9387,2.9424,2.9481,2.9509,2.9522,2.9582,2.9603,2.9673,2.9687,2.9734,2.9827,2.9867,2.9899,2.9967,2.9976,2.9984,3.0008,3.0049,3.0056,3.0062,3.0088,3.0097,2.999,2.999,2.999,0,2.9308,2.9385,2.9413,2.9468,2.9502,2.9518,2.9574,2.9609,2.9681,2.9705,2.9696,2.9812,2.9852,2.9935,2.9952,2.9977,2.9994,2.9977,3.0053,3.0059,3.0066,3.009,3.01,2.999,2.999,2.999,2.999,0,2.9397,2.945,2.9487,2.9554,2.9593,2.9647,2.9685,2.972,2.9735,2.9764,2.9836,2.9883,2.9946,2.9967,2.9983,3.0054,3.0048,3.0045,3.003,3.0074,3.0098,3.0108,2.9991,2.9991,2.9991,2.9991,0,0,2.9449,2.9531,2.9544,2.9575,2.9639,2.9682,2.9737,2.9798,2.9828,2.9877,2.9926,3.0003,3.0002,3.0039,3.0059,3.0095,3.0147,3.0088,3.009,3.0099,3.023,3.0232,3.0242,3.0153,3.0155,3.0156,3.0225,0,2.951,2.9608,2.9636,2.972,2.977,2.9787,2.9835,2.988,2.9909,2.9957,2.999,3.0045,3.0038,3.006,3.0097,3.0133,3.0174,3.0128,3.02,3.0202,3.0186,3.0254,3.0257,3.032,3.0235,3.0236,3.0237,0,2.9595,2.9644,2.9733,2.9791,2.9813,2.9856,2.9915,2.996,3.0012,3.003,3.0071,3.0088,3.0148,3.0128,3.0212,3.0181,3.0211,3.0234,3.0237,3.0246,3.0223,3.0266,3.034,3.035,3.0252,3.0251,3.025,0,2.9625,2.9714,2.9779,2.9805,2.9874,2.9904,2.9934,2.9984,3.002,3.0071,3.0094,3.0152,3.0184,3.0229,3.0261,3.0244,3.0343,3.0326,3.0361,3.036,3.0382,3.0381,3.0463,3.04,3.04,3.04,3.0399,0,2.9692,2.9746,2.9794,2.9834,2.9895,2.9926,2.9986,3.0017,3.0062,3.0109,3.0127,3.0171,3.0211,3.0261,3.0286,3.0353,3.0367,3.0384,3.0391,3.0383,3.0381,3.0405,3.0402,3.0402,3.0402,3.0401,3.0401,0,2.9736,2.9771,2.9843,2.9901,2.9918,2.996,3.0011,3.0052,3.0081,3.014,3.0156,3.0203,3.0262,3.0299,3.0374,3.0392,3.0465,3.0469,3.0447,3.0451,3.0484,3.0481,3.0586,3.0602,3.0527,3.0528,3.0528,0,2.9777,2.9819,2.9882,2.9915,2.9945,2.9997,3.0033,3.0065,3.0101,3.0164,3.0197,3.0257,3.0307,3.0402,3.0443,3.0502,3.0508,3.0541,3.0517,3.0509,3.051,3.0508,3.0513,3.0545,3.0546,3.0546,3.0547,0,2.9846,2.9861,2.9911,2.9967,3.0009,3.0055,3.0101,3.0127,3.0167,3.0208,3.0268,3.0307,3.0384,3.0445,3.0506,3.0539,3.0551,3.0554,3.0565,3.0559,3.0545,3.0554,3.046,3.0552,3.0551,3.0551,3.0551,3.055,2.9892,2.993,2.998,3.0036,3.0073,3.0116,3.0157,3.019,3.0241,3.0306,3.0322,3.0386,3.0437,3.0521,3.0555,3.0607,3.0602,3.0618,3.0623,3.0626,3.0628,3.0535,3.0618,3.0618,3.0618,3.0618,3.0618,0,2.9963,2.9996,3.0046,3.011,3.0153,3.0158,3.021,3.0247,3.0302,3.0349,3.0398,3.0468,3.0526,3.0572,3.0632,3.0665,3.0672,3.068,3.0678,3.0686,3.0628,3.0613,3.0673,3.0673,3.0673,3.0673,3.0673,3.0673,3.0005,3.007,3.0091,3.0175,3.0209,3.027,3.0299,3.0339,3.0377,3.0454,3.0502,3.0531,3.0578,3.0641,3.0696,3.0708,3.073,3.0737,3.075,3.0696,3.069,3.0684,3.067,3.0742,3.0742,3.0804,3.0805,3.0805]},{"header":{"parameterUnit":"m.s-1","parameterCategory":1,"la1":30.2991,"la2":30.254,"lo1":-89.0895,"lo2":-89.0444,"dy":0.0017,"dx":0.0017,"nx":28,"ny":28,"refTime":"2023-07-19T21:00:00:Z","depth":0,"parameterNumber":3,"parameterNumberName":"V-component_of_WINDS"},"data":[0,0,0,0,0,0,0,0,0,0,0,0,0,0,0,0,0,0,0,0,0,0,0,0,0,0,0,0,0,0,0,0,0,0,0,0,0,0,0,0,0,0,0,0,0,0,0,0,0,0,0,0,0,0,0,0,0,0,-0.0345,-0.0345,0,-0.0359,-0.0359,-0.0359,-0.0347,-0.0346,-0.0346,-0.0345,-0.0361,-0.0362,-0.0363,0,0,0,0,0,0,0,0,0,0,0,0,0,-0.0311,-0.0312,-0.0345,-0.0345,-0.0345,-0.0359,-0.0359,-0.0359,-0.0347,-0.0346,-0.0346,-0.0345,-0.0361,-0.0362,-0.0363,0,0,0,0,0,0,0,0,0,0,0,0,0,-0.0325,-0.0312,-0.0345,-0.0341,-0.0341,-0.0358,-0.0359,-0.0359,-0.0347,-0.0346,-0.0346,-0.0345,-0.036,-0.0362,-0.0363,-0.0386,0,0,-0.0367,-0.0367,0,0,0,0,0,0,0,0,-0.0324,-0.0327,-0.0341,-0.0341,-0.0341,-0.035,-0.0352,-0.0368,-0.0347,-0.0345,-0.0345,-0.0345,-0.0358,-0.0359,-0.0364,-0.0387,-0.0387,-0.0367,-0.0368,-0.0368,-0.0369,0,0,0,0,0,0,0,-0.0323,-0.0326,-0.035,-0.0342,-0.0341,-0.0339,-0.034,-0.0355,-0.0355,-0.0345,-0.0344,-0.0346,-0.0358,-0.0362,-0.0364,-0.0387,-0.0367,-0.0368,-0.0369,-0.0369,-0.0431,-0.0432,0,0,0,0,0,0,-0.0323,-0.0325,-0.035,-0.0351,-0.0331,-0.034,-0.0342,-0.0348,-0.0355,-0.0356,-0.0346,-0.0345,-0.0361,-0.0362,-0.0364,-0.0393,-0.0368,-0.037,-0.037,-0.043,-0.0431,-0.0432,0,0,0,0,0,0,-0.0322,-0.0325,-0.0349,-0.0338,-0.0341,-0.0342,-0.0349,-0.0349,-0.0353,-0.0356,-0.0356,-0.0351,-0.036,-0.0363,-0.0381,-0.0393,-0.037,-0.0371,-0.0429,-0.0431,-0.0432,-0.0449,0,0,0,0,0,0,-0.0321,-0.0325,-0.0333,-0.0338,-0.0341,-0.0365,-0.035,-0.0349,-0.0355,-0.0354,-0.0361,-0.0361,-0.036,-0.0379,-0.0382,-0.0394,-0.0372,-0.0428,-0.043,-0.0431,-0.0447,-0.045,-0.0453,0,0,0,0,0,-0.032,-0.0337,-0.0333,-0.0336,-0.0351,-0.0365,-0.0367,-0.0365,-0.0356,-0.0365,-0.0367,-0.0361,-0.0391,-0.0381,-0.0384,-0.0397,-0.0427,-0.0429,-0.0431,-0.0445,-0.045,-0.0453,0,0,0,0,0,0,-0.0334,-0.0338,-0.0334,-0.0353,-0.0359,-0.0363,-0.0374,-0.0369,-0.0378,-0.0377,-0.0374,-0.0375,-0.0395,-0.0398,-0.0386,-0.042,-0.0408,-0.0411,-0.0418,-0.0421,-0.0425,-0.0423,-0.0373,0,0,0,0,0,-0.0339,-0.035,-0.0353,-0.037,-0.0373,-0.0373,-0.0379,-0.0377,-0.0383,-0.0386,-0.0389,-0.0396,-0.0407,-0.0414,-0.0425,-0.0447,-0.0449,-0.0458,-0.0461,-0.0464,-0.0466,-0.0479,-0.0484,-0.0439,-0.0439,-0.0439,0,0,-0.035,-0.0354,-0.036,-0.0372,-0.0377,-0.0388,-0.0375,-0.0388,-0.0397,-0.0388,-0.0405,-0.0408,-0.0416,-0.0436,-0.0446,-0.0439,-0.0479,-0.0466,-0.0468,-0.0469,-0.0482,-0.0486,-0.049,-0.044,-0.044,-0.0439,0,0,-0.0376,-0.038,-0.0394,-0.0399,-0.0406,-0.0406,-0.041,-0.0415,-0.0417,-0.0434,-0.0428,-0.0439,-0.0458,-0.0464,-0.0469,-0.0499,-0.0494,-0.0503,-0.0519,-0.0532,-0.0535,-0.0538,-0.055,-0.0554,-0.0505,-0.0505,-0.0505,0,-0.0389,-0.0406,-0.0403,-0.0416,-0.0422,-0.0414,-0.043,-0.0435,-0.0445,-0.045,-0.0442,-0.0467,-0.0471,-0.0494,-0.0501,-0.0506,-0.051,-0.0502,-0.0535,-0.0538,-0.0541,-0.0552,-0.0556,-0.0506,-0.0506,-0.0506,-0.0506,0,-0.0422,-0.0434,-0.0445,-0.0455,-0.0462,-0.0476,-0.0476,-0.0484,-0.0482,-0.0483,-0.0501,-0.0507,-0.0518,-0.0523,-0.0521,-0.0546,-0.0542,-0.0535,-0.0522,-0.0546,-0.0556,-0.056,-0.0508,-0.0507,-0.0507,-0.0507,0,0,-0.0457,-0.0465,-0.0469,-0.0474,-0.0481,-0.0491,-0.0506,-0.0517,-0.0524,-0.0531,-0.0544,-0.0561,-0.0555,-0.0561,-0.0559,-0.0571,-0.0595,-0.0562,-0.0562,-0.0569,-0.0624,-0.0629,-0.0634,-0.0592,-0.0592,-0.0593,-0.0623,0,-0.0484,-0.0508,-0.0506,-0.053,-0.0542,-0.0535,-0.0548,-0.0554,-0.0556,-0.0567,-0.0569,-0.0581,-0.0572,-0.0576,-0.0586,-0.059,-0.0606,-0.0587,-0.0604,-0.0605,-0.0603,-0.0639,-0.0645,-0.0673,-0.0627,-0.0628,-0.0628,0,-0.0518,-0.0527,-0.0552,-0.0558,-0.0563,-0.0574,-0.0585,-0.0595,-0.0602,-0.0603,-0.0611,-0.0607,-0.0623,-0.061,-0.0633,-0.062,-0.0627,-0.063,-0.0631,-0.0632,-0.0618,-0.0642,-0.0682,-0.0686,-0.0634,-0.0634,-0.0633,0,-0.0542,-0.056,-0.0577,-0.0581,-0.0589,-0.0597,-0.0601,-0.0608,-0.0615,-0.0625,-0.063,-0.0641,-0.0647,-0.0657,-0.0657,-0.0648,-0.068,-0.0667,-0.0682,-0.0682,-0.0689,-0.0689,-0.0731,-0.0693,-0.0693,-0.0693,-0.0693,0,-0.0572,-0.0588,-0.0588,-0.0598,-0.0616,-0.0614,-0.0632,-0.0635,-0.0641,-0.0653,-0.0648,-0.066,-0.0659,-0.0671,-0.0672,-0.0691,-0.0694,-0.0695,-0.0695,-0.0696,-0.0696,-0.07,-0.0698,-0.0694,-0.0694,-0.0693,-0.0693,0,-0.0602,-0.0602,-0.0621,-0.0627,-0.0629,-0.0641,-0.0647,-0.0658,-0.0659,-0.0674,-0.0678,-0.0681,-0.0695,-0.0696,-0.0712,-0.0713,-0.0736,-0.0733,-0.0733,-0.0733,-0.0748,-0.0746,-0.0794,-0.0801,-0.0759,-0.0759,-0.0759,0,-0.0621,-0.0633,-0.064,-0.0648,-0.0652,-0.0664,-0.0671,-0.067,-0.0678,-0.0688,-0.0698,-0.0711,-0.0722,-0.0744,-0.0749,-0.0761,-0.076,-0.0776,-0.0761,-0.0762,-0.076,-0.076,-0.0761,-0.0778,-0.0779,-0.0779,-0.0779,0,-0.0656,-0.0656,-0.0666,-0.0677,-0.0686,-0.0694,-0.0702,-0.0709,-0.0709,-0.0718,-0.0732,-0.074,-0.0757,-0.0771,-0.0783,-0.0788,-0.0784,-0.0784,-0.0788,-0.0789,-0.0788,-0.0789,-0.0741,-0.0783,-0.0782,-0.0782,-0.0782,-0.0782,-0.0681,-0.0692,-0.0699,-0.0711,-0.0717,-0.0724,-0.0735,-0.0738,-0.0749,-0.0762,-0.0761,-0.0777,-0.0786,-0.0802,-0.0808,-0.0821,-0.0816,-0.0822,-0.0823,-0.0825,-0.0826,-0.0786,-0.0823,-0.0823,-0.0823,-0.0823,-0.0823,0,-0.0716,-0.072,-0.0731,-0.0743,-0.0753,-0.0748,-0.0756,-0.0765,-0.0779,-0.0787,-0.0797,-0.0814,-0.0827,-0.0833,-0.0846,-0.0856,-0.0854,-0.0859,-0.0859,-0.086,-0.083,-0.0825,-0.086,-0.086,-0.086,-0.086,-0.086,-0.086,-0.0735,-0.0753,-0.0754,-0.0775,-0.0779,-0.0794,-0.08,-0.0808,-0.0814,-0.0832,-0.0843,-0.0847,-0.0854,-0.0868,-0.0881,-0.0882,-0.0888,-0.0893,-0.0894,-0.0866,-0.0862,-0.0859,-0.0854,-0.0894,-0.0895,-0.0923,-0.0923,-0.0924]}]]